Location: Bourg-d�Oueil
(42.8588°N, 0.4991°E)
Time: 16:42:42
(UTC+00:00)

Cosmos 1954 Rocket - Pass Details

Date: 16 June 2021
Orbit: 752 x 781 km, 74.1° (Epoch: 03 August)

Event Time Altitude Azimuth Distance (km) Brightness Sun altitude
Rises 20:08:30 0° 343° (NNW) 3,276 8.3 -5.2°
Reaches altitude 10° 20:10:56 10° 347° (NNW) 2,345 7.4 -5.6°
Maximum altitude 20:16:12 58° 67° (ENE) 909 4.3 -6.3°
Drops below altitude 10° 20:21:25 10° 146° (SE) 2,325 5.9 -7.0°
Enters shadow 20:21:59 - 147° (SSE) 2,542 6.1 -7.1°
